Theta_e
350 349 349 350 350 348 349 348 348 348 346 349 349 347 346 347 345 340 344 339 340 342 343 348 347 346 345 346 345 343 343 344 344 342 343 340 336 334 334 335 335 336 340
350 350 349 348 351 349 349 346 347 349 349 346 339 344 349 345 347 344 340 343 342 340 340 342 344 348 348 347 346 346 343 341 340 342 343 343 339 335 340 342 338 334 334
349 350 348 348 349 349 348 349 348 348 341 337 335 343 346 348 346 345 341 342 342 342 341 339 339 341 344 349 348 345 345 343 340 333 339 342 339 339 340 342 338 333 333
349 349 349 347 349 350 348 348 347 345 341 338 334 335 334 339 343 340 338 336 336 342 341 341 339 338 339 347 347 342 342 341 343 343 338 334 332 332 337 340 342 336 334
350 351 348 349 350 352 351 349 346 343 334 336 337 337 335 335 336 337 337 339 339 340 343 343 341 340 339 344 346 341 341 341 341 341 343 342 341 339 339 337 334 335 340
352 351 348 350 350 351 351 348 347 342 333 335 335 335 336 336 338 339 339 341 339 342 344 344 342 342 342 341 343 343 342 341 341 342 341 340 339 339 339 340 340 337 336
351 350 348 350 351 351 350 347 345 339 332 337 334 330 338 337 336 340 339 341 341 341 340 344 343 344 344 342 341 340 342 342 341 341 341 341 342 342 342 341 340 340 340
350 352 348 349 348 351 348 346 340 332 337 336 334 336 335 337 337 337 335 335 341 340 338 333 334 342 343 341 341 342 343 342 342 343 342 341 341 341 342 342 341 341 342
347 350 348 348 349 349 348 345 337 334 336 338 335 337 334 334 338 337 333 338 340 338 333 328 327 339 341 334 336 326 327 340 342 341 341 340 342 343 343 343 342 342 342
353 349 351 347 348 349 348 345 339 335 331 337 338 335 335 334 334 336 335 333 333 335 333 329 328 328 327 327 326 321 321 318 317 317 317 318 321 326 332 337 340 342 342
353 352 350 350 348 349 347 344 337 332 334 335 339 338 338 338 332 332 333 335 332 331 333 330 329 328 327 327 326 326 326 326 325 324 321 318 317 317 317 318 319 321 325
354 352 351 351 349 344 347 340 338 335 334 336 336 336 335 336 337 337 328 329 332 334 331 330 329 328 328 327 327 327 327 327 326 327 328 327 326 324 319 317 317 317 318
353 348 352 351 349 346 344 340 338 337 333 337 335 335 335 334 334 332 330 329 329 330 332 332 329 329 329 328 327 328 327 327 327 328 329 328 327 327 326 324 320 318 317
352 348 350 350 349 346 344 341 340 336 331 332 335 334 335 334 334 333 331 330 326 327 330 332 333 331 329 329 328 328 327 327 327 329 329 327 328 328 328 327 326 325 322
349 347 347 349 347 346 346 342 339 337 335 336 333 337 333 334 335 333 333 332 330 327 325 330 330 330 332 329 329 328 328 328 329 331 330 329 329 330 329 329 329 328 327
348 347 347 348 346 346 347 344 340 339 337 335 337 335 335 333 335 334 333 332 332 330 325 330 330 330 332 331 331 330 331 330 330 330 330 330 330 332 331 330 329 329 328
353 348 347 347 346 347 347 345 342 339 337 334 338 338 335 335 336 336 334 334 333 333 330 332 331 331 332 332 331 331 332 331 331 332 330 329 328 328 330 329 327 328 328
354 353 350 347 347 347 348 347 343 339 338 336 338 339 337 336 336 337 334 334 334 332 333 332 332 332 330 331 331 330 330 331 331 331 330 329 328 327 329 328 328 326 325
357 353 353 350 348 348 348 347 342 339 338 336 337 338 338 337 337 336 333 333 333 334 334 334 333 332 330 330 330 329 330 330 328 326 325 328 329 329 325 324 324 324 324
357 354 354 353 350 348 347 347 342 341 339 338 336 338 339 338 336 335 333 335 336 335 335 333 332 332 331 329 329 328 328 326 327 326 327 327 326 323 322 323 323 323 321
356 356 355 353 350 348 348 347 344 340 341 339 339 338 340 338 337 336 334 336 335 334 334 334 332 329 328 327 328 328 328 328 327 324 323 322 322 319 317 316 318 320 321
358 357 355 353 351 349 347 346 344 342 342 341 340 337 338 340 339 338 335 336 337 335 334 333 332 328 327 327 328 328 328 327 326 325 325 325 320 319 320 321 321 321 322
360 359 357 354 353 352 350 348 346 345 344 343 341 338 335 339 339 339 337 338 338 336 335 333 330 328 327 327 328 326 326 327 326 327 326 322 320 319 321 321 321 321 320
359 360 359 357 355 355 353 350 348 346 345 342 339 337 338 340 339 339 338 337 337 336 334 330 329 327 327 327 329 326 327 328 327 327 323 321 321 321 321 321 320 315 310
360 360 360 358 358 357 357 351 348 346 344 343 340 340 342 342 340 338 337 337 335 333 332 331 329 328 328 328 328 326 325 325 322 323 322 320 321 320 319 317 314 311 313
361 359 359 360 360 359 357 352 347 343 343 342 342 341 341 341 340 338 337 337 333 331 333 330 329 329 329 327 325 321 320 322 321 319 318 319 319 318 317 316 314 313 316
Wind_Speed
6 8 4 2 3 3 3 3 1 1 2 3 2 2 2 6 6 7 9 10 7 9 11 14 15 15 14 15 14 13 12 12 12 12 13 11 10 10 9 8 8 7 6
10 9 7 6 1 3 1 1 0 1 3 3 4 3 3 3 6 4 5 10 10 9 11 12 12 13 14 15 15 15 14 13 13 12 13 12 9 9 9 10 8 8 8
13 9 7 4 3 4 3 3 3 0 4 3 2 2 5 5 6 7 8 7 12 11 11 10 10 12 13 15 16 16 16 15 13 13 14 14 14 13 13 11 9 9 8
13 10 5 6 5 5 4 3 4 1 1 1 2 8 5 7 7 7 8 6 5 13 12 10 7 7 11 13 14 15 16 15 16 14 12 13 14 14 15 12 12 10 9
13 9 7 6 7 6 6 3 3 1 2 4 4 5 3 5 4 2 10 4 7 8 14 12 9 6 7 10 11 11 12 13 15 15 16 15 14 14 14 13 14 14 13
15 11 9 8 7 8 7 5 7 3 2 1 3 2 1 3 6 7 12 9 5 6 7 13 10 9 9 8 10 10 11 11 12 15 15 15 16 17 16 16 15 14 14
16 15 11 10 6 9 9 8 7 4 2 1 3 1 3 2 6 14 14 12 10 10 9 9 5 4 12 7 7 8 10 10 10 10 12 13 15 16 16 15 15 16 17
18 18 14 13 11 11 10 10 5 6 5 3 0 3 3 3 8 12 11 12 14 11 9 5 3 7 8 5 2 3 4 6 7 8 7 9 15 15 14 15 16 16 17
18 19 16 13 12 13 12 11 8 7 6 3 1 3 2 3 1 5 9 13 15 10 8 6 4 7 8 4 3 2 1 3 4 6 8 8 8 9 13 15 16 18 18
22 18 16 15 13 13 16 13 9 6 8 7 4 4 3 4 2 0 4 6 9 11 10 8 5 7 6 5 5 5 7 6 5 5 5 5 5 6 8 10 11 13 14
24 21 18 17 16 15 19 15 12 10 9 7 4 6 5 3 4 3 1 2 6 10 12 11 9 8 7 5 5 4 3 4 6 8 6 7 7 7 6 7 8 8 10
27 25 23 21 18 17 20 17 14 11 10 9 6 6 6 3 4 4 2 2 2 5 14 14 15 14 11 9 6 5 2 1 4 7 9 11 9 9 10 9 9 9 9
29 28 28 27 23 20 18 18 15 12 13 11 10 8 6 5 4 6 6 3 2 1 2 14 17 17 16 14 11 9 7 6 5 6 9 9 10 9 10 11 11 12 13
34 32 30 30 26 23 20 19 15 13 11 13 13 12 9 6 4 5 5 6 1 2 1 3 0 17 17 20 16 13 11 9 9 9 10 9 9 9 10 11 11 13 14
34 32 31 32 28 27 24 22 19 17 15 14 13 13 12 9 6 5 4 6 5 2 2 3 1 3 5 14 14 15 12 13 13 13 14 13 14 14 14 15 17 17 17
34 34 34 33 32 31 28 25 22 19 17 17 15 13 12 11 11 7 5 6 7 7 2 5 1 1 2 4 5 11 15 14 17 17 18 16 16 17 18 19 20 21 22
36 35 37 38 36 35 32 28 26 22 21 20 20 19 16 14 13 10 8 7 8 8 6 6 7 6 6 9 13 12 13 16 18 20 17 16 17 19 21 21 22 22 24
36 37 37 42 40 39 36 33 30 27 25 25 22 22 21 18 20 18 15 13 12 11 9 9 11 11 10 10 13 15 17 14 14 13 16 19 22 22 18 18 19 19 18
39 39 36 39 43 42 39 36 34 32 30 28 27 27 24 22 21 20 19 19 15 12 12 11 9 13 15 16 17 13 10 6 11 16 17 16 15 14 13 15 17 17 18
45 42 41 39 39 42 42 39 36 34 32 31 30 30 29 28 26 23 22 21 17 15 14 15 14 15 15 17 14 13 16 17 16 15 15 15 18 21 23 23 22 24 26
42 46 43 39 39 40 41 40 38 37 36 34 31 29 30 31 28 25 25 24 21 20 18 17 15 15 17 19 17 13 13 15 17 18 16 17 18 24 22 21 17 17 18
39 36 40 41 41 38 40 41 38 37 37 37 36 32 29 29 28 26 25 26 25 24 23 20 18 15 18 19 15 15 15 15 6 19 12 20 22 19 18 18 18 17 18
35 36 38 39 40 40 39 38 37 37 35 35 33 31 31 29 28 27 26 26 27 25 22 19 19 19 19 22 17 16 17 17 21 25 22 22 24 23 19 20 19 17 19
35 36 37 38 39 40 38 37 33 32 37 32 30 29 30 30 29 26 27 27 28 25 23 19 19 20 23 20 18 20 22 22 23 22 22 11 23 22 20 19 21 24 21
33 34 38 38 39 38 40 35 32 32 29 28 27 27 27 28 28 25 26 24 23 19 22 18 18 18 15 14 16 18 20 20 17 24 23 13 16 19 20 23 20 16 21
34 34 37 38 38 36 33 30 27 28 29 29 30 30 26 23 19 16 21 20 21 25 23 16 14 13 11 12 16 18 18 21 21 7 7 9 17 18 8 16 15 18 22
Wind_Direction
196 173 160 191 171 158 171 79 158 344 72 12 45 29 78 182 194 186 170 185 165 192 210 206 203 200 198 204 205 205 207 207 207 206 200 202 204 199 199 209 215 215 221
191 177 174 189 127 161 149 351 8 336 342 11 7 162 245 218 185 164 186 188 183 189 207 211 217 210 206 213 215 213 212 214 216 216 211 216 217 212 214 225 233 234 224
196 195 201 204 184 152 224 221 194 294 56 88 37 246 252 252 206 197 189 201 208 199 209 213 219 223 223 218 219 224 225 224 219 219 221 224 227 228 230 233 238 246 243
205 201 220 200 189 211 199 215 201 185 336 309 42 18 240 230 199 213 207 202 220 218 212 211 210 221 232 231 233 232 233 233 230 227 226 232 236 235 237 239 239 248 250
205 220 196 185 221 227 220 166 173 143 97 34 56 348 127 200 154 198 203 190 206 220 221 202 210 222 239 229 237 239 242 243 239 237 235 233 236 236 239 243 243 249 254
210 213 204 217 220 209 205 212 198 212 359 7 2 305 173 147 107 152 158 136 160 130 164 200 203 226 231 225 234 238 239 241 241 242 244 242 242 243 246 249 250 250 254
209 216 219 223 220 219 202 198 181 231 186 187 328 288 72 126 154 138 136 139 142 134 130 166 221 233 199 205 233 240 235 237 240 247 248 253 251 252 252 252 255 256 258
222 218 222 221 226 223 193 187 197 158 168 132 134 95 25 71 120 149 141 144 153 142 126 126 180 168 168 168 209 235 222 220 221 224 239 260 253 255 257 256 257 258 260
220 211 217 225 220 203 201 200 203 171 174 171 112 137 79 214 142 153 137 136 156 154 145 133 134 157 154 148 137 66 117 226 241 256 270 277 275 262 261 261 261 263 262
215 219 216 212 209 209 202 204 212 206 194 181 185 155 125 142 153 62 183 159 175 182 173 166 166 154 145 131 125 104 84 72 59 25 349 329 305 293 284 273 270 269 270
222 220 214 209 208 214 206 200 205 201 191 181 191 168 145 145 107 123 218 263 219 220 204 200 208 193 187 164 147 138 105 74 35 26 4 335 329 327 317 305 292 284 276
219 213 214 209 205 195 194 206 206 216 207 187 170 169 155 158 184 152 127 216 257 251 223 224 216 212 214 206 199 201 209 279 2 17 10 357 318 308 307 312 312 309 304
201 205 208 203 205 211 210 205 213 221 213 203 199 188 163 128 167 176 162 156 180 251 11 236 239 227 224 225 221 225 236 252 296 316 342 342 331 310 303 296 297 300 299
201 202 205 201 208 212 211 212 222 222 221 222 220 210 201 181 157 172 184 161 27 330 295 61 249 236 242 235 235 235 236 251 278 288 306 320 321 310 302 300 300 296 292
201 205 207 204 210 211 215 219 221 222 223 224 225 232 227 223 209 182 182 204 180 182 273 201 257 8 249 231 232 242 252 264 265 286 293 303 302 302 299 294 292 292 293
210 208 205 208 212 215 216 220 221 221 224 225 225 226 232 227 216 215 213 218 214 205 204 223 233 332 233 225 255 277 271 271 268 279 286 298 301 294 293 290 291 289 285
215 216 211 210 215 215 214 219 222 220 224 226 231 230 231 234 230 229 226 209 208 207 214 257 252 274 279 258 279 282 272 281 281 277 283 292 295 299 293 291 294 297 289
216 216 218 217 217 218 215 218 219 218 223 226 229 229 234 237 241 238 233 224 232 239 232 249 269 272 277 283 288 290 289 284 284 282 291 295 295 297 296 295 293 291 294
225 220 217 218 218 219 218 220 221 220 222 226 229 231 234 231 230 234 244 231 227 233 244 248 258 275 284 292 290 289 287 280 285 294 293 290 293 295 302 298 294 292 293
220 223 223 222 220 220 221 222 222 223 225 228 231 232 234 236 240 242 237 239 237 231 240 252 264 279 286 292 279 286 280 293 296 299 296 289 297 303 302 298 298 298 293
216 224 224 222 220 220 220 222 224 225 227 228 232 236 240 240 241 244 244 241 239 241 240 244 252 263 282 292 289 285 282 291 294 299 298 300 306 307 303 302 306 310 307
214 218 220 221 221 220 225 229 229 228 231 230 232 235 242 247 243 245 246 248 250 246 243 242 250 262 285 297 295 274 278 290 302 304 283 292 311 309 314 320 318 320 316
205 211 217 218 222 225 229 232 233 232 235 236 234 238 242 245 248 244 247 249 251 253 257 256 253 264 285 298 291 289 283 276 276 288 284 290 303 302 307 312 309 311 310
198 203 209 217 221 226 231 233 230 231 235 238 236 238 242 247 250 247 252 250 251 254 250 247 260 280 291 291 279 289 291 284 282 284 291 274 300 294 300 297 298 303 302
195 197 208 212 218 222 227 226 223 219 232 240 245 244 246 250 252 257 257 250 246 266 267 256 261 275 278 282 284 292 289 286 281 291 300 278 292 293 292 294 292 281 293
193 193 203 215 220 225 227 224 222 221 222 232 238 246 249 253 255 257 258 243 253 260 264 264 274 276 277 290 291 286 286 275 274 292 309 263 292 304 291 280 281 291 304